Wetbulb
58.55 53.98 54.15 52.77 45.17 43.83 41.58 44.68 47.58 47.72 48.06 52.84 53.47 52.83 53.56 54.61 52.63 48.95 63.63 66.27 68.28 69.61 70.70 70.85 70.99 71.17 70.58 70.76 70.67 70.46 70.04 69.44 70.00 69.90 69.83 69.12 68.79 69.09 69.16 69.54 69.99 70.09 69.31 69.07 69.27 68.96 68.53 68.09 67.55
54.00 54.11 53.65 48.47 41.89 38.23 39.92 44.30 46.01 48.33 53.45 53.62 53.16 54.44 54.73 53.98 58.98 60.97 63.47 67.46 69.33 69.68 70.46 70.64 69.90 70.70 70.33 70.20 69.81 70.23 69.99 69.54 68.52 68.21 68.14 68.30 68.11 68.63 68.48 68.53 69.41 69.35 69.02 68.42 69.05 68.59 68.29 67.61 67.18
54.69 53.29 50.55 43.97 39.87 38.50 39.28 44.16 47.09 50.03 52.81 49.60 52.66 55.75 56.02 55.96 59.56 62.16 65.34 68.57 69.35 69.52 70.40 69.83 69.87 70.56 70.19 69.75 69.52 70.02 69.91 69.46 68.61 68.78 68.24 67.51 67.14 67.10 67.50 68.12 69.05 69.09 68.40 68.68 69.12 68.16 67.65 66.86 66.08
52.53 52.24 48.19 42.31 41.65 43.56 43.10 46.69 47.96 50.27 50.18 52.05 53.93 53.42 57.15 60.58 61.68 63.46 66.56 68.60 68.55 69.02 69.84 69.54 70.22 70.48 70.00 69.65 70.05 70.24 70.13 69.61 68.42 68.06 67.30 67.38 66.93 66.62 67.29 67.49 68.43 68.69 68.25 67.73 67.75 68.11 67.10 66.02 65.48
52.12 48.87 42.26 40.82 42.04 43.89 43.57 48.16 48.36 47.20 47.71 50.05 51.54 52.90 55.85 60.68 63.78 66.02 66.95 67.68 67.37 68.28 69.56 70.10 69.79 69.90 70.06 69.67 69.63 69.66 69.81 69.22 68.58 67.30 67.58 66.45 66.24 65.90 66.83 66.66 66.84 67.23 67.48 67.20 67.39 67.55 66.41 65.59 65.08
49.51 48.40 41.10 39.17 40.66 44.15 45.68 48.61 48.49 47.60 48.50 51.62 53.59 54.36 56.81 61.98 63.15 64.65 66.85 66.54 67.40 67.63 68.91 69.76 67.03 68.13 69.13 69.42 69.40 69.39 69.27 68.92 68.09 67.23 67.03 66.99 66.20 66.57 66.03 65.65 66.15 66.72 66.53 66.40 66.36 66.09 65.76 65.10 64.57
48.43 46.42 40.60 39.79 40.58 42.18 47.11 48.03 47.09 47.32 48.93 50.57 55.49 52.45 55.83 59.75 63.27 65.20 65.48 65.83 66.54 67.38 67.87 68.31 69.04 67.74 66.23 67.52 67.61 67.99 68.29 68.17 68.07 67.53 67.22 66.93 66.37 66.50 66.80 66.01 65.63 66.18 66.13 65.85 65.47 65.24 64.97 64.68 64.02
47.34 46.84 44.03 41.43 41.02 41.70 45.25 47.01 47.35 48.51 48.04 54.06 55.52 50.26 54.35 59.30 63.17 63.99 64.55 64.76 65.01 65.86 66.62 67.00 67.93 68.12 67.82 67.92 64.75 65.45 66.33 66.88 66.81 65.77 64.77 64.42 64.55 64.77 64.57 63.95 65.72 65.42 65.46 65.17 64.73 64.46 64.17 63.88 62.94
50.03 43.36 41.20 42.82 41.62 43.77 44.29 44.99 45.82 47.40 51.23 50.37 52.94 54.01 56.23 61.55 63.39 62.90 62.10 62.14 62.44 63.61 64.98 66.06 66.42 66.84 66.84 66.26 63.99 63.81 64.19 64.38 63.83 62.88 61.03 62.02 64.85 64.22 63.50 63.11 64.99 65.33 65.02 64.28 63.51 62.86 62.10 60.95 60.92
46.97 43.37 42.72 45.99 45.22 43.43 44.20 44.09 45.34 46.16 48.36 48.78 52.76 56.25 59.69 61.91 62.03 60.22 59.35 59.17 60.04 61.25 63.14 64.80 65.62 65.70 66.52 65.59 64.81 65.63 65.19 64.83 63.78 62.86 62.28 62.85 63.66 63.60 63.06 61.65 61.93 62.87 63.18 64.14 63.11 61.95 59.77 59.45 60.47
46.55 43.62 45.68 45.83 45.62 44.83 44.58 44.03 44.89 44.91 44.58 48.32 50.29 54.32 58.55 60.42 61.10 59.44 59.66 59.87 59.93 61.25 62.39 63.38 64.33 65.35 66.25 65.36 64.54 64.26 63.84 63.25 62.48 61.45 61.32 61.49 61.68 62.38 62.95 62.94 62.07 61.89 58.42 60.52 59.92 59.89 59.55 59.10 59.17
44.69 46.27 46.05 48.27 45.56 44.01 43.34 44.83 43.78 44.43 47.16 47.56 51.22 56.99 58.82 59.41 59.30 60.04 59.82 60.49 60.23 60.18 61.06 62.45 63.45 64.25 65.14 65.55 64.71 63.93 62.48 61.85 61.64 61.23 60.59 60.46 60.58 60.72 60.99 61.18 60.50 60.23 59.91 59.68 59.39 59.31 58.92 58.22 57.93
44.60 45.05 45.21 46.07 44.71 44.05 43.99 43.59 43.40 43.47 45.50 49.92 53.92 57.53 58.79 59.53 60.00 60.93 61.46 62.01 61.06 60.04 60.68 61.30 62.92 63.15 63.75 64.18 64.63 63.99 62.71 61.67 61.12 60.87 60.83 60.20 59.94 59.77 59.62 59.62 59.54 59.29 59.10 58.86 59.08 58.76 58.37 57.98 57.40
46.79 44.33 44.56 45.61 44.27 44.32 43.63 41.64 42.43 45.19 46.46 52.02 54.69 55.93 58.09 59.17 59.94 60.45 60.76 60.63 60.21 60.44 60.27 61.78 62.24 62.67 62.70 62.42 63.53 63.08 63.34 62.43 61.44 60.63 60.85 60.38 60.23 59.71 59.36 59.04 59.00 59.04 58.69 59.09 59.20 59.01 58.56 57.71 57.07
44.43 42.88 43.57 46.39 43.78 43.40 43.80 41.11 41.04 44.02 47.23 50.81 53.72 54.28 55.66 58.28 59.34 59.89 60.81 60.92 61.42 60.98 60.52 60.98 61.90 62.08 62.37 62.39 62.37 62.55 62.66 62.73 62.09 61.41 60.95 61.03 60.28 59.78 59.41 59.01 58.75 59.02 58.95 58.35 58.67 58.35 57.79 57.38 56.53
42.49 43.81 39.21 42.83 42.97 43.41 44.09 41.28 43.96 44.56 45.25 47.15 51.75 52.73 54.23 55.63 58.18 60.22 60.81 61.81 61.93 61.63 60.57 61.01 61.58 61.57 61.71 62.04 62.37 62.45 62.48 63.25 62.91 62.55 62.07 61.24 60.28 59.91 59.47 59.22 58.94 59.15 59.02 59.03 58.42 57.87 57.47 56.92 56.37
41.96 35.32 38.35 40.25 41.86 40.93 40.83 38.38 43.41 43.11 43.34 43.70 48.21 51.41 53.07 54.11 55.15 57.12 59.21 61.50 61.73 62.25 61.67 61.06 61.53 61.31 61.47 61.71 61.76 62.21 62.51 62.91 63.28 63.08 62.86 62.24 60.74 59.23 58.66 58.58 58.91 59.11 58.78 58.53 57.89 57.22 56.74 56.45 56.31
36.49 35.71 37.53 37.22 41.26 38.81 37.54 37.32 41.46 42.04 41.24 42.86 43.52 49.45 51.50 53.44 55.34 57.25 57.81 59.48 61.47 62.29 62.56 62.39 61.98 61.58 61.68 61.91 61.57 61.69 61.77 61.91 62.22 62.26 62.45 63.08 61.91 60.40 58.95 58.55 57.93 57.08 57.60 57.45 56.61 56.63 55.07 55.44 55.55
39.32 40.23 39.20 37.57 43.06 39.61 38.87 40.42 43.39 43.54 39.70 39.65 40.52 43.54 50.03 52.11 55.55 56.24 57.12 57.90 58.86 61.14 61.83 62.15 61.96 61.98 61.64 61.16 60.83 60.87 61.10 61.87 62.44 62.76 62.77 62.96 62.41 61.42 60.08 59.50 58.45 57.68 56.97 56.66 55.42 55.03 54.74 54.80 53.42
39.34 38.07 37.69 39.92 38.93 37.91 37.15 36.52 39.71 41.89 41.53 42.38 42.43 41.12 44.58 49.64 50.96 52.55 55.10 56.54 57.42 58.97 61.10 61.95 62.26 62.34 62.04 62.25 62.35 62.50 62.88 63.21 63.86 63.76 63.27 62.87 62.57 61.94 60.95 60.04 59.19 58.19 57.16 56.42 56.02 54.37 54.16 53.93 53.47
35.29 34.40 33.19 35.56 35.52 36.30 33.46 34.17 36.21 40.65 39.81 40.46 40.41 41.78 42.21 45.10 48.37 49.95 48.70 53.45 55.67 57.13 58.80 60.90 62.19 62.50 62.64 62.96 62.20 60.46 61.11 61.91 62.35 62.71 62.98 62.67 62.99 62.11 61.44 60.70 60.14 59.22 58.07 57.60 56.68 55.64 54.85 55.01 52.93
33.41 38.06 36.85 35.35 34.08 27.95 32.45 26.20 33.14 38.39 41.59 38.39 41.11 40.27 41.06 41.65 43.72 46.20 45.88 45.85 50.65 55.36 57.94 60.06 61.44 62.29 62.67 63.11 61.98 61.61 61.23 60.65 62.20 62.95 63.71 63.08 63.39 62.85 62.19 61.52 61.05 60.08 58.99 58.27 57.51 57.71 56.43 55.03 53.55
35.89 37.61 36.80 35.86 32.61 29.96 28.93 26.21 29.59 33.89 37.19 41.89 41.62 40.55 41.64 42.09 42.72 43.70 44.10 46.28 45.78 48.57 54.14 57.62 60.06 61.31 62.29 62.71 62.67 61.95 61.78 62.25 61.94 61.64 61.82 60.97 62.09 63.36 62.70 62.06 60.91 60.28 59.22 58.53 59.26 56.74 55.64 55.32 55.12
38.05 36.62 34.44 32.21 33.12 26.79 29.73 28.34 28.20 32.49 35.55 37.10 39.07 41.28 42.75 42.91 42.08 42.78 41.34 40.90 41.63 43.74 48.68 53.65 57.28 59.47 61.04 61.96 62.51 62.01 62.09 61.29 60.53 61.03 60.52 60.48 59.91 61.43 61.73 61.10 60.87 60.10 59.73 58.93 58.14 57.37 56.07 55.18 54.80
37.82 35.45 27.69 26.47 25.84 24.67 25.40 26.59 34.97 34.64 35.25 37.09 39.09 40.41 41.35 42.78 42.19 41.18 40.08 41.12 41.74 43.48 45.33 47.72 53.72 56.70 59.08 60.65 61.44 61.79 61.97 61.25 61.16 60.99 61.08 59.33 59.45 59.73 59.84 59.97 59.76 59.46 58.96 58.13 57.27 55.89 54.92 54.41 53.06
35.93 35.93 27.58 20.99 19.42 23.04 25.26 25.06 32.62 35.90 39.38 37.37 37.18 37.28 37.28 38.20 38.55 39.48 40.88 42.01 42.42 43.64 45.19 45.40 46.32 53.59 56.39 59.27 60.43 61.45 61.42 60.78 60.94 60.55 59.57 59.44 58.91 58.75 58.38 56.54 55.80 55.48 55.11 53.88 52.54 50.70 48.88 48.48 48.31
31.18 32.33 34.83 27.23 16.99 19.27 24.20 27.78 33.51 34.71 35.26 35.18 35.62 36.11 37.82 38.73 39.12 39.46 39.88 41.48 42.49 43.92 45.40 45.33 44.03 44.45 46.62 53.02 57.40 59.78 60.54 60.44 59.10 58.10 58.35 57.04 55.50 53.53 52.90 52.32 50.74 49.38 48.59 47.81 47.00 45.57 44.12 43.63 43.35
34.41 36.79 28.42 28.27 18.71 15.10 22.73 23.94 29.32 30.85 33.65 35.84 35.76 36.23 38.80 39.44 38.74 39.63 40.82 41.71 42.67 44.42 45.82 45.86 44.71 44.50 45.35 45.73 46.69 52.13 56.53 58.69 57.31 55.69 54.20 53.74 51.20 49.86 48.41 47.03 45.16 43.72 42.68 42.38 42.32 41.26 40.35 39.61 39.20
29.71 30.44 29.80 30.77 26.76 20.92 17.69 24.99 30.35 33.66 36.00 36.46 37.27 36.21 36.89 38.62 38.43 39.66 40.93 41.56 42.38 43.49 44.46 45.05 45.02 44.65 45.03 45.34 46.66 48.63 51.04 52.51 52.62 52.04 50.81 49.43 46.90 44.84 43.15 42.70 41.17 39.96 39.24 39.04 39.05 38.15 37.17 36.58 36.28
32.31 31.65 33.32 26.76 23.06 23.32 23.59 28.59 34.14 33.39 33.68 34.24 35.16 35.70 36.47 38.13 38.65 39.33 40.98 40.86 40.94 42.03 42.87 43.23 43.14 43.33 43.19 43.03 45.57 46.86 46.22 47.26 47.59 46.45 44.97 45.02 42.39 40.89 39.97 38.83 37.65 37.04 36.73 36.67 36.31 35.31 35.27 34.92 34.18
MSLP
1014.94 1015.18 1015.44 1015.51 1017.20 1018.21 1018.89 1019.06 1019.09 1019.31 1019.67 1019.80 1019.91 1020.18 1020.31 1020.82 1021.07 1021.72 1021.57 1021.63 1021.61 1021.71 1021.86 1022.04 1022.25 1022.45 1022.70 1022.88 1022.95 1022.97 1023.07 1023.15 1023.14 1023.28 1023.43 1023.60 1023.76 1023.85 1023.86 1024.02 1024.16 1024.16 1024.22 1024.32 1024.41 1024.60 1024.73 1024.85 1024.88
1015.09 1015.13 1015.66 1016.71 1017.91 1018.89 1019.34 1019.15 1019.23 1019.36 1019.75 1020.00 1020.20 1020.48 1020.64 1021.08 1021.21 1021.32 1021.42 1021.64 1021.64 1021.71 1021.97 1022.32 1022.55 1022.64 1022.91 1023.07 1023.13 1023.20 1023.31 1023.48 1023.53 1023.65 1023.74 1023.89 1024.10 1024.13 1024.28 1024.44 1024.50 1024.52 1024.63 1024.68 1024.86 1025.02 1025.18 1025.37 1025.46
1015.17 1015.36 1016.55 1017.74 1018.87 1019.13 1019.20 1019.12 1019.27 1019.66 1019.91 1020.03 1020.59 1020.80 1020.97 1021.18 1021.42 1021.29 1021.17 1021.44 1021.72 1021.93 1022.11 1022.36 1022.58 1022.79 1022.99 1023.20 1023.29 1023.42 1023.53 1023.60 1023.83 1023.81 1024.26 1024.32 1024.40 1024.56 1024.81 1024.82 1024.85 1025.00 1025.08 1025.20 1025.28 1025.50 1025.69 1025.82 1025.89
1015.39 1016.02 1017.87 1018.32 1018.97 1018.98 1019.07 1019.04 1019.25 1019.87 1019.99 1020.14 1020.58 1021.07 1021.15 1021.13 1021.30 1021.13 1021.03 1021.58 1021.83 1022.09 1022.30 1022.40 1022.61 1022.88 1023.12 1023.33 1023.52 1023.58 1023.72 1023.94 1024.17 1024.24 1024.49 1024.72 1024.86 1024.99 1025.18 1025.27 1025.25 1025.36 1025.49 1025.75 1025.82 1025.88 1026.11 1026.24 1026.33
1015.86 1016.84 1018.28 1018.93 1019.04 1019.01 1018.95 1019.09 1019.25 1019.79 1019.93 1020.33 1020.63 1021.19 1021.32 1021.32 1021.40 1021.32 1021.31 1021.62 1022.14 1022.35 1022.61 1022.70 1022.84 1023.06 1023.19 1023.48 1023.64 1023.77 1023.90 1024.10 1024.46 1024.65 1024.85 1025.11 1025.28 1025.42 1025.54 1025.69 1025.85 1025.92 1026.04 1026.18 1026.18 1026.26 1026.40 1026.52 1026.62
1016.59 1017.22 1018.62 1019.24 1019.13 1018.96 1018.88 1019.02 1019.09 1019.64 1019.96 1020.42 1020.78 1021.12 1021.58 1021.52 1021.64 1021.61 1021.57 1021.92 1022.27 1022.46 1022.78 1022.89 1023.11 1023.30 1023.27 1023.61 1024.11 1024.27 1024.36 1024.49 1024.73 1025.03 1025.23 1025.39 1025.70 1025.85 1025.95 1026.06 1026.24 1026.37 1026.48 1026.53 1026.59 1026.66 1026.75 1026.87 1027.01
1017.20 1017.96 1018.84 1019.07 1019.27 1018.99 1018.73 1018.90 1019.15 1019.58 1019.85 1020.14 1020.48 1021.30 1021.70 1021.77 1021.80 1022.04 1021.89 1022.20 1022.58 1022.83 1022.96 1023.13 1023.41 1023.70 1023.58 1023.59 1023.96 1024.43 1024.60 1024.83 1025.02 1025.26 1025.50 1025.76 1025.93 1026.19 1026.35 1026.44 1026.54 1026.67 1026.82 1026.96 1027.02 1027.13 1027.20 1027.31 1027.46
1017.72 1018.46 1019.14 1019.03 1019.12 1018.97 1018.83 1018.88 1018.88 1019.32 1019.79 1020.05 1020.28 1020.91 1021.34 1021.30 1021.77 1022.34 1022.53 1022.68 1023.01 1023.06 1023.28 1023.35 1023.72 1024.15 1024.20 1024.26 1024.35 1024.64 1024.86 1025.16 1025.41 1025.60 1025.90 1026.08 1026.22 1026.44 1026.61 1026.77 1026.88 1027.01 1027.16 1027.26 1027.37 1027.52 1027.62 1027.69 1027.81
1017.86 1018.66 1019.15 1018.91 1018.90 1018.81 1018.89 1019.01 1019.14 1019.28 1019.67 1020.12 1020.24 1020.63 1020.58 1021.03 1021.72 1022.43 1023.04 1023.08 1023.38 1023.55 1023.44 1023.56 1023.79 1024.30 1024.75 1024.78 1024.72 1024.75 1025.10 1025.41 1025.71 1026.03 1026.34 1026.47 1026.63 1026.85 1026.96 1027.08 1027.14 1027.25 1027.41 1027.53 1027.71 1027.87 1028.04 1028.20 1028.32
1018.03 1018.63 1018.82 1018.32 1018.54 1018.60 1018.65 1018.95 1019.09 1019.42 1019.75 1020.19 1020.38 1020.79 1020.95 1021.12 1021.74 1022.27 1022.77 1022.95 1023.23 1023.47 1023.59 1023.51 1023.91 1024.21 1024.62 1025.15 1025.46 1025.43 1025.45 1025.66 1025.89 1026.16 1026.41 1026.65 1026.89 1027.06 1027.21 1027.38 1027.57 1027.69 1027.83 1027.95 1028.08 1028.24 1028.35 1028.42 1028.48
1018.15 1018.10 1018.52 1018.27 1018.38 1018.64 1018.70 1018.85 1019.05 1019.37 1019.83 1019.45 1019.74 1020.44 1021.05 1021.28 1021.52 1022.05 1022.43 1022.88 1023.03 1023.55 1023.67 1023.68 1023.92 1024.08 1024.42 1024.95 1025.47 1025.67 1025.86 1026.01 1026.27 1026.50 1026.69 1026.86 1027.08 1027.30 1027.48 1027.72 1027.90 1028.05 1028.22 1028.26 1028.37 1028.49 1028.59 1028.68 1028.68
1018.21 1018.04 1017.95 1018.17 1018.45 1018.63 1018.89 1018.79 1019.14 1019.37 1018.74 1018.79 1019.09 1019.95 1020.84 1021.09 1021.13 1021.26 1021.76 1022.41 1022.94 1023.26 1023.69 1023.83 1024.09 1024.26 1024.42 1024.82 1025.25 1025.76 1026.12 1026.32 1026.40 1026.61 1026.81 1027.03 1027.29 1027.53 1027.72 1027.92 1028.22 1028.41 1028.59 1028.60 1028.73 1028.81 1028.92 1028.90 1028.88
1018.14 1017.90 1017.97 1017.90 1018.39 1018.39 1018.75 1018.97 1019.10 1019.13 1018.71 1018.95 1019.28 1019.95 1020.44 1020.68 1020.99 1021.16 1021.47 1022.06 1022.72 1023.14 1023.65 1023.75 1024.00 1024.41 1024.51 1024.62 1025.16 1025.38 1025.95 1026.23 1026.42 1026.66 1026.89 1027.01 1027.27 1027.51 1027.77 1027.99 1028.23 1028.44 1028.65 1028.70 1028.75 1028.86 1028.95 1028.99 1029.02
1017.71 1018.01 1018.11 1018.11 1018.28 1018.48 1018.76 1019.05 1019.16 1018.69 1018.64 1019.12 1019.65 1019.79 1020.21 1020.35 1020.44 1021.09 1021.55 1021.58 1022.24 1022.54 1023.18 1023.67 1023.82 1024.11 1024.64 1024.67 1024.75 1025.32 1025.63 1025.99 1026.37 1026.66 1026.82 1027.06 1027.27 1027.54 1027.83 1028.07 1028.19 1028.35 1028.60 1028.76 1028.85 1028.93 1029.02 1029.09 1029.11
1018.19 1018.44 1018.40 1018.17 1018.40 1018.65 1018.73 1019.06 1019.11 1019.03 1019.32 1019.63 1019.80 1020.00 1020.12 1020.35 1020.59 1020.35 1020.94 1021.08 1021.51 1021.86 1022.52 1023.16 1023.70 1024.07 1024.26 1024.70 1024.87 1025.04 1025.37 1025.76 1026.02 1026.28 1026.60 1026.85 1027.11 1027.35 1027.64 1027.92 1028.15 1028.29 1028.54 1028.66 1028.81 1028.93 1029.03 1028.98 1029.03
1018.59 1018.83 1018.95 1018.42 1018.51 1018.78 1018.74 1018.45 1018.76 1018.78 1019.32 1019.73 1019.88 1019.90 1019.82 1020.12 1019.77 1020.09 1020.58 1020.90 1021.31 1021.57 1021.93 1022.57 1022.98 1023.48 1023.90 1024.18 1024.70 1024.84 1025.14 1025.37 1025.58 1025.95 1026.24 1026.61 1026.81 1027.09 1027.40 1027.65 1027.91 1028.19 1028.37 1028.49 1028.60 1028.67 1028.67 1028.78 1028.87
1019.28 1019.45 1019.40 1019.02 1018.95 1019.07 1018.96 1018.75 1018.32 1018.46 1019.25 1019.41 1019.64 1019.83 1019.71 1019.66 1019.76 1019.69 1020.06 1020.32 1020.68 1021.05 1021.54 1021.99 1022.54 1023.02 1023.27 1023.76 1024.16 1024.48 1024.74 1025.00 1025.19 1025.64 1025.92 1026.20 1026.53 1026.79 1027.06 1027.42 1027.65 1027.93 1028.20 1028.34 1028.49 1028.66 1028.68 1028.64 1028.56
1019.69 1019.95 1019.88 1019.67 1019.64 1019.47 1019.49 1019.35 1018.56 1018.44 1018.90 1018.79 1019.26 1019.33 1019.51 1019.22 1018.50 1019.00 1019.41 1019.89 1020.23 1020.70 1021.02 1021.39 1021.84 1022.37 1022.80 1023.22 1023.87 1024.38 1024.59 1024.87 1025.07 1025.20 1025.55 1025.73 1026.02 1026.45 1026.80 1027.08 1027.39 1027.79 1027.91 1028.07 1028.31 1028.39 1028.67 1028.67 1028.62
1019.78 1020.09 1020.20 1020.06 1019.69 1019.82 1019.60 1019.34 1018.36 1018.12 1018.42 1018.44 1018.40 1018.76 1018.71 1018.57 1018.41 1018.74 1019.06 1019.47 1019.91 1020.22 1020.72 1020.85 1021.19 1021.68 1022.49 1023.01 1023.48 1024.02 1023.98 1024.22 1024.52 1024.70 1024.86 1025.19 1025.52 1025.89 1026.40 1026.71 1026.98 1027.20 1027.41 1027.63 1028.02 1028.31 1028.53 1028.64 1028.67
1019.84 1020.17 1020.57 1020.30 1020.03 1020.43 1019.86 1019.34 1017.99 1017.73 1017.52 1017.29 1017.27 1017.59 1017.93 1017.91 1018.15 1018.38 1018.55 1018.90 1019.28 1019.49 1019.73 1020.21 1020.67 1020.86 1021.50 1022.16 1022.36 1022.77 1023.12 1023.34 1023.31 1023.88 1024.16 1024.35 1024.68 1025.13 1025.59 1026.04 1026.36 1026.68 1026.99 1027.37 1027.64 1027.91 1028.19 1028.45 1028.60
1019.76 1020.00 1020.51 1020.69 1020.67 1020.56 1020.41 1018.94 1017.90 1016.56 1016.56 1016.41 1016.37 1016.50 1017.03 1017.38 1017.18 1017.64 1018.07 1018.12 1018.39 1018.78 1019.13 1019.34 1019.67 1020.14 1020.40 1021.05 1021.76 1022.60 1022.92 1023.23 1023.43 1023.70 1023.96 1023.89 1024.04 1024.34 1024.77 1025.15 1025.56 1025.91 1026.37 1026.64 1026.92 1027.22 1027.55 1027.88 1028.21
1019.62 1019.69 1020.16 1020.67 1021.18 1021.38 1020.84 1019.34 1017.24 1015.94 1015.37 1015.51 1015.81 1015.95 1016.17 1016.46 1016.73 1016.54 1017.28 1017.48 1017.52 1017.41 1018.23 1018.67 1018.87 1019.59 1019.91 1020.44 1020.95 1021.46 1021.73 1022.11 1022.46 1022.84 1023.09 1023.08 1023.40 1023.94 1024.11 1024.29 1024.64 1025.16 1025.66 1026.02 1026.41 1026.85 1027.18 1027.45 1027.77
1019.31 1019.69 1020.32 1020.78 1021.76 1022.07 1021.20 1021.07 1016.69 1015.81 1014.68 1014.47 1014.58 1015.05 1015.08 1015.12 1015.55 1015.89 1015.93 1016.07 1016.30 1016.86 1017.21 1017.80 1018.26 1018.75 1019.32 1019.74 1020.06 1020.65 1020.93 1021.11 1021.54 1022.08 1022.63 1023.00 1022.94 1023.15 1023.53 1023.83 1024.22 1024.52 1025.06 1025.57 1025.82 1026.46 1026.90 1027.28 1027.49
1019.62 1020.65 1021.47 1021.74 1022.47 1022.76 1021.32 1021.19 1016.55 1015.65 1014.54 1013.86 1014.06 1013.91 1013.88 1014.19 1014.19 1014.88 1015.41 1015.90 1016.19 1016.35 1016.86 1017.25 1017.60 1017.87 1018.25 1018.89 1019.26 1019.69 1020.05 1020.54 1021.05 1021.38 1021.87 1022.46 1022.84 1022.98 1023.23 1023.59 1023.91 1024.21 1024.56 1025.02 1025.49 1025.84 1026.33 1026.94 1027.41
1019.45 1021.09 1022.63 1023.52 1023.87 1021.80 1021.05 1020.79 1015.25 1015.00 1014.29 1013.95 1013.80 1013.40 1013.26 1013.35 1013.78 1014.18 1015.05 1015.56 1015.73 1016.08 1016.24 1016.52 1016.98 1017.42 1017.59 1018.12 1018.49 1018.95 1019.28 1019.72 1020.03 1020.62 1020.94 1021.77 1022.53 1022.93 1023.18 1023.40 1023.76 1023.97 1024.20 1024.61 1025.20 1025.76 1026.21 1026.74 1027.26
1019.56 1020.68 1021.24 1022.18 1023.15 1022.26 1021.31 1019.41 1015.22 1014.25 1013.03 1013.44 1013.32 1013.47 1013.76 1013.94 1013.83 1014.36 1014.39 1014.67 1015.23 1015.65 1015.79 1016.03 1016.44 1016.90 1017.38 1017.67 1017.96 1018.49 1018.84 1019.36 1019.57 1019.94 1020.40 1021.05 1021.66 1022.31 1022.88 1023.39 1023.90 1024.29 1024.47 1024.82 1025.29 1026.09 1026.74 1027.12 1027.56
1019.45 1019.92 1020.31 1021.57 1023.18 1022.51 1020.40 1018.03 1015.45 1014.07 1013.77 1013.41 1013.48 1013.73 1013.73 1013.59 1013.63 1013.93 1014.48 1014.71 1015.22 1015.61 1015.74 1015.79 1016.10 1016.47 1016.94 1017.46 1017.69 1018.10 1018.52 1019.13 1019.50 1019.81 1020.08 1020.79 1021.69 1022.42 1023.03 1023.58 1024.19 1025.01 1025.16 1025.35 1025.74 1026.52 1027.31 1027.88 1028.40
1017.14 1018.64 1020.15 1020.67 1021.99 1021.66 1019.45 1017.85 1015.07 1013.90 1013.77 1013.53 1013.55 1013.41 1012.99 1013.32 1013.84 1014.24 1014.47 1014.86 1014.93 1015.61 1015.87 1016.14 1016.20 1016.25 1016.60 1017.05 1017.81 1018.19 1018.27 1018.59 1019.25 1019.83 1020.28 1020.79 1021.47 1022.21 1023.17 1023.92 1024.55 1025.47 1025.86 1026.40 1026.64 1027.14 1027.81 1028.22 1029.01
1017.42 1017.83 1018.41 1019.14 1019.77 1019.43 1018.65 1015.92 1013.71 1013.18 1012.97 1013.11 1012.94 1013.46 1013.63 1013.65 1013.78 1013.92 1014.38 1014.73 1014.95 1015.57 1016.03 1016.17 1016.50 1016.41 1016.72 1017.09 1017.48 1018.04 1018.36 1018.48 1019.19 1019.76 1020.20 1020.64 1021.50 1022.35 1022.97 1024.21 1024.61 1025.86 1026.41 1026.89 1027.07 1027.57 1028.16 1028.77 1029.23
1016.17 1016.27 1017.18 1017.82 1018.31 1018.49 1017.72 1014.30 1012.22 1012.38 1012.72 1012.94 1013.00 1013.27 1013.20 1013.52 1013.64 1013.86 1013.90 1014.48 1014.82 1015.49 1016.32 1016.54 1016.43 1016.46 1016.62 1016.92 1017.37 1017.86 1018.26 1018.64 1019.30 1020.11 1020.55 1020.78 1021.36 1022.61 1023.22 1024.35 1024.73 1025.85 1026.39 1026.94 1027.34 1028.07 1028.82 1029.01 1029.64
Wind_Speed
3 2 0 5 5 5 1 1 1 3 0 2 3 3 4 3 2 2 0 4 9 9 9 12 13 14 14 12 13 14 15 15 15 16 17 17 15 15 16 14 14 16 17 18 19 19 19 19 18
2 1 4 3 5 3 3 2 4 3 4 5 4 2 4 2 2 6 7 9 10 10 10 12 12 14 13 12 11 11 16 15 15 16 15 16 16 16 15 15 14 16 17 16 18 18 19 19 18
1 4 4 5 3 3 3 3 3 2 5 2 3 3 2 2 2 10 5 12 10 10 11 12 13 14 13 12 11 10 15 17 14 16 16 16 17 16 15 14 15 15 16 17 18 17 19 18 17
3 4 5 5 2 1 3 2 4 6 2 2 3 5 1 1 9 6 15 12 11 10 11 12 14 14 14 13 12 11 16 17 15 16 16 15 15 15 15 14 13 15 17 17 15 17 18 17 16
4 3 4 3 2 2 2 2 6 4 3 2 1 3 3 2 2 14 14 11 12 10 9 11 12 14 14 12 13 13 15 15 16 14 14 14 14 14 13 14 13 14 15 16 15 16 16 15 16
4 2 4 2 3 2 2 4 6 3 3 2 4 4 4 1 10 13 11 11 10 10 8 9 9 10 13 14 12 12 13 15 15 13 12 13 13 13 13 13 13 13 13 15 15 15 14 14 14
5 3 4 3 2 5 2 6 4 4 5 3 7 5 0 4 5 7 10 9 8 8 8 7 8 7 9 12 13 12 12 12 13 12 11 11 10 13 11 10 11 12 13 13 14 14 13 13 13
4 4 2 3 2 3 2 4 1 3 3 3 3 4 4 5 9 7 7 9 7 7 7 8 6 4 6 8 11 11 11 11 11 11 9 8 9 11 10 8 9 11 11 12 12 12 13 11 11
3 4 3 4 5 1 1 2 3 1 6 1 3 3 1 14 14 9 7 8 8 6 6 7 7 6 4 5 6 10 11 10 9 9 9 8 6 7 7 7 9 9 10 11 11 11 11 10 10
4 4 8 4 3 2 1 3 5 3 3 3 2 2 6 17 14 14 13 12 12 11 9 8 9 7 7 4 3 4 6 6 6 6 6 5 5 5 5 6 8 8 9 10 11 10 9 6 4
4 6 5 4 4 1 1 2 3 5 3 8 9 7 15 15 13 16 13 12 13 11 9 9 9 8 8 7 4 3 2 3 4 6 5 5 4 4 3 3 3 3 5 3 4 4 4 5 4
4 5 7 4 4 3 3 0 1 6 6 2 7 12 16 17 18 18 14 14 13 12 11 9 8 8 7 5 5 4 3 3 3 4 6 4 3 3 3 2 3 2 2 3 3 2 3 4 4
2 3 6 7 4 4 3 3 3 7 8 3 8 13 18 17 17 13 11 12 11 11 10 10 9 8 8 7 5 6 5 4 5 5 5 4 4 4 3 2 2 2 1 2 2 2 2 3 4
4 5 2 4 3 0 1 1 3 6 4 5 8 13 13 18 18 14 14 14 12 10 10 9 10 9 9 9 10 7 5 6 5 4 5 5 3 3 3 2 2 1 1 2 2 1 1 2 2
4 4 3 3 1 4 5 3 5 4 1 4 8 7 8 11 10 18 15 13 13 10 10 12 11 9 10 9 9 8 7 7 6 6 7 7 6 5 4 3 2 2 2 2 1 1 0 1 2
4 1 2 1 6 2 7 12 8 5 5 9 8 8 9 10 14 12 10 11 10 10 12 11 10 11 10 10 8 7 7 7 6 6 6 7 6 7 5 4 3 3 3 2 2 1 1 1 2
3 3 6 3 6 3 4 3 6 4 6 9 8 8 9 9 8 9 11 12 12 13 11 12 12 12 12 10 8 8 8 7 7 6 6 8 7 6 5 4 3 4 3 3 2 2 2 2 2
6 4 0 4 2 1 2 6 10 4 6 10 7 7 10 12 18 13 12 11 11 11 11 12 11 12 11 7 6 4 5 5 5 6 7 9 6 7 5 4 5 4 3 3 3 4 2 3 3
6 3 6 0 4 3 6 12 16 11 5 8 10 9 12 14 7 7 9 10 10 10 12 13 13 12 9 6 6 5 6 6 5 6 8 8 7 8 7 4 4 5 5 4 4 2 3 2 1
7 4 2 3 3 4 6 10 13 10 9 11 13 10 13 8 7 7 10 12 13 14 15 13 14 13 12 8 7 4 6 5 7 7 9 10 9 8 7 7 6 6 4 5 5 4 2 1 2
4 7 5 4 3 2 4 11 10 10 9 9 8 9 7 14 14 12 10 13 12 15 14 15 15 15 14 14 6 3 3 2 4 4 5 7 9 10 10 10 7 7 6 5 5 5 5 3 2
6 8 6 5 2 4 1 9 7 8 18 10 11 9 12 12 10 9 12 11 15 16 13 14 14 15 13 14 11 13 10 9 8 7 7 7 9 8 10 10 9 7 6 6 4 4 3 3 4
5 7 8 5 4 4 4 3 8 5 14 18 16 12 15 14 14 16 16 17 13 9 13 13 13 14 13 14 14 12 11 9 5 5 7 5 5 8 8 6 6 6 5 4 6 4 4 3 2
9 7 9 5 4 6 4 6 6 7 9 6 7 14 16 15 14 15 7 7 7 7 9 11 13 14 14 15 16 16 15 11 8 8 7 6 3 4 5 5 5 5 5 5 4 5 5 4 2
7 13 2 3 4 10 3 6 21 6 5 6 9 10 11 12 10 11 11 10 9 11 11 10 13 14 13 15 15 16 15 14 14 12 8 9 5 3 5 5 5 4 5 6 5 5 5 4 4
10 10 6 7 6 4 1 11 11 8 10 7 8 9 7 9 7 9 11 11 10 9 10 10 11 11 13 15 15 13 13 9 9 9 6 6 5 6 5 6 6 5 7 7 8 6 5 6 6
6 11 7 5 2 3 6 8 11 9 11 7 10 7 12 11 9 10 7 7 6 8 10 10 9 7 9 10 8 11 10 10 8 7 5 6 7 6 8 8 9 6 7 8 8 6 7 7 6
13 12 6 3 5 5 6 6 11 3 9 10 9 11 14 9 6 6 5 6 5 5 4 5 7 8 6 7 6 6 5 8 7 7 8 10 10 10 10 9 9 8 8 7 9 8 8 9 6
5 9 5 6 7 8 3 8 10 10 10 9 10 7 8 8 9 8 6 5 5 3 5 6 5 6 6 6 6 6 5 6 7 8 9 11 10 10 11 8 11 9 8 7 9 9 9 9 8
7 10 17 6 7 3 3 13 7 8 7 7 9 9 8 7 7 6 8 7 6 6 4 4 4 5 5 5 6 7 7 8 8 8 9 11 12 9 11 10 11 10 9 8 10 10 7 9 8
Wind_Direction
7 30 310 40 54 64 76 192 119 119 159 310 83 137 154 88 162 154 188 173 148 136 138 120 111 110 108 105 103 105 98 92 98 95 91 89 91 91 83 81 79 82 85 86 87 85 83 78 73
5 172 42 72 82 68 273 267 177 164 141 131 78 67 46 83 87 134 140 157 149 137 125 119 111 111 109 105 102 104 106 99 102 103 96 98 92 89 91 94 89 88 87 88 89 83 80 78 75
145 37 76 84 95 150 201 214 160 98 145 88 100 43 121 136 129 151 151 146 138 129 127 128 120 120 112 106 108 97 113 104 105 100 98 96 99 98 96 94 93 89 88 76 84 86 81 78 73
31 21 46 79 139 241 195 183 154 130 257 109 128 79 61 266 163 174 145 144 134 135 137 134 131 128 120 116 105 104 115 109 104 106 105 98 99 101 94 91 89 85 82 82 82 85 86 79 72
40 61 64 77 299 253 253 182 144 146 118 109 116 160 78 101 122 149 144 141 139 139 139 137 131 134 130 127 120 106 105 110 103 103 102 109 107 103 101 97 91 83 87 87 88 89 90 84 75
26 92 77 131 276 277 252 180 131 120 118 135 93 116 159 115 158 161 144 142 142 141 137 134 134 142 134 125 117 110 103 104 111 112 114 104 110 99 98 100 99 91 94 92 90 89 88 82 77
104 42 146 127 272 310 196 153 147 158 142 214 153 126 260 179 179 161 137 128 136 137 142 130 139 147 135 129 128 125 119 117 120 118 115 112 116 105 94 97 99 95 96 93 86 82 83 84 81
100 81 146 139 170 279 148 169 144 157 188 116 146 185 181 190 143 125 127 126 142 146 141 128 125 132 140 137 128 129 124 113 106 100 97 101 91 99 98 88 96 99 99 96 89 84 79 81 80
164 86 187 211 161 313 51 189 2 97 113 239 159 172 346 130 132 136 144 143 161 165 145 138 134 123 116 131 142 130 125 119 109 102 91 94 106 102 98 101 97 95 95 98 89 83 75 66 58
115 145 209 166 170 177 324 180 173 141 110 233 164 36 130 142 152 166 175 175 175 179 172 160 156 139 137 118 101 118 119 123 128 127 116 113 116 112 105 96 81 76 71 74 85 78 63 60 58
185 179 191 198 143 21 36 104 175 129 218 214 195 160 165 165 167 178 183 188 183 185 181 180 164 158 148 144 149 128 124 129 128 129 127 118 118 115 107 105 85 74 57 65 67 72 55 61 55
160 184 159 143 150 112 332 29 256 194 230 304 188 154 168 178 184 183 182 186 188 184 191 185 172 166 160 145 147 150 155 149 149 148 141 138 126 127 122 115 87 64 45 66 58 58 49 46 44
242 196 184 144 145 108 136 282 243 256 244 5 136 153 179 187 192 190 187 187 190 183 192 190 175 174 166 170 167 155 173 177 169 164 160 150 151 154 148 143 131 119 103 84 89 64 32 24 20
212 173 179 137 127 86 49 341 75 285 155 142 164 179 185 192 191 187 199 193 191 183 184 183 184 180 171 182 181 189 177 182 177 173 172 167 160 155 161 166 176 168 121 109 84 54 25 16 355
131 157 24 296 119 175 153 321 220 282 326 202 201 193 193 197 179 197 200 191 192 187 172 184 188 185 184 187 180 181 190 189 186 184 182 182 179 178 170 173 192 177 159 139 124 126 24 317 320
109 71 159 208 156 238 136 259 259 223 177 238 227 205 196 201 204 198 192 197 189 175 179 181 184 187 190 190 192 188 187 191 192 189 185 192 186 180 177 182 199 181 176 181 186 194 244 273 285
350 172 203 286 215 135 178 265 238 158 207 244 227 231 214 208 220 203 196 194 185 192 180 184 185 190 193 197 195 196 194 199 196 193 195 194 197 188 179 189 192 182 184 196 195 206 235 256 273
186 191 313 205 266 186 119 269 275 236 197 231 259 228 228 223 218 210 196 197 194 195 191 187 186 193 193 186 182 191 194 212 204 199 204 200 193 186 184 182 183 176 184 197 199 220 215 255 271
141 153 200 274 246 232 229 246 247 244 224 247 237 231 227 229 235 199 194 194 194 192 195 195 186 192 181 178 185 199 206 196 197 196 199 191 186 181 186 194 184 185 202 194 190 194 226 255 242
139 131 202 293 270 183 293 260 261 242 233 226 232 221 232 220 213 210 198 195 201 203 204 197 200 187 189 195 196 187 188 200 198 197 200 190 185 181 185 189 200 191 192 193 187 181 183 184 184
155 147 160 209 295 221 287 276 241 241 230 235 237 226 232 228 217 224 208 203 191 206 203 200 200 195 191 192 170 125 114 115 183 186 205 197 190 186 187 193 195 202 194 207 191 183 180 194 186
184 165 146 117 49 260 109 284 266 248 237 221 236 219 229 229 235 214 209 209 204 207 203 207 196 199 197 188 185 196 197 194 203 198 202 194 188 199 197 192 198 194 193 205 175 183 191 159 200
202 148 174 145 82 360 207 285 270 272 245 235 223 225 230 224 217 233 214 216 209 191 197 200 199 198 195 192 192 196 205 205 184 184 191 187 199 196 200 188 172 180 180 184 191 168 184 194 177
133 75 37 43 81 267 205 203 241 218 226 236 224 228 224 227 215 230 233 189 208 189 190 189 191 201 192 192 196 199 204 195 186 188 186 190 189 172 176 171 172 169 169 168 167 166 166 169 161
127 150 145 159 203 238 292 171 249 256 268 241 238 246 229 227 225 212 200 203 205 196 195 191 195 203 191 194 197 201 204 197 200 197 189 175 164 166 172 149 157 152 142 140 136 124 118 121 110
163 171 164 171 200 245 138 223 248 235 254 244 242 251 287 267 237 234 226 213 211 201 188 180 183 192 197 201 203 204 200 200 200 190 172 173 168 147 134 122 116 114 115 107 104 99 89 95 100
180 203 157 86 80 52 217 287 295 256 279 276 250 263 261 249 234 235 230 222 213 193 197 191 179 179 180 198 197 202 198 195 192 172 148 139 128 125 128 126 112 94 96 104 107 109 104 97 96
182 147 159 199 204 246 247 258 235 319 261 271 283 247 244 266 262 260 233 209 178 179 176 186 187 181 175 169 186 202 173 176 163 153 149 142 131 127 126 121 109 109 103 105 112 108 107 105 99
135 185 192 159 179 186 250 250 195 221 225 236 262 295 288 258 228 208 195 177 155 156 178 179 183 166 165 163 159 165 168 141 144 149 144 138 128 128 120 131 120 119 120 119 110 106 112 110 108
185 189 199 181 221 295 125 270 178 230 240 234 275 279 269 253 258 222 185 168 156 163 189 200 176 171 168 151 151 159 143 139 138 140 137 136 130 127 124 128 120 127 125 117 116 115 120 115 111